ABS-2 (39508 NORAD) Tracking and Keplerian Element Data

This shows tracking and keplerian element data for the satellite.

Feedback or suggestion? Click here.




ElementValue
Catalog39508
NameABS-2
Epoch Orbit4348
Epoch Day354.13799894
Epoch Year2025
RAAN308.7822
Inclination0.014
Eccentricity0.0003415
Argument of Perigee312.1611
Mean Anonmoly312.6353
Mean Motion1.00271697
Decay Rate-6.2E-07
L11 39508U 14006A 25354.13799894 -.00000062 00000+0 00000+0 0 9992
L22 39508 0.0140 308.7822 0003415 312.1611 312.6353 1.00271697 43485



Live tracking and technical data element details for ABS-2 (NORAD 39508). ABS-2 can be tracked NOW for your location showing map with azimuth and elevation plus other details from your city location.







IsCatalogInMostPopularTable: catalog: 39508, numindb: 585
Update: records affected: 1



GetName: 39508 ABS-2

Hit Count: updated at: Thu, 16 Apr 2026 06:45:49 GMT